Regional Weather Roundup
Issued by NWS Sterling, VA

Current Version | Previous Version | Text Only | Print | Product List | Glossary On
Versions: 1 2 3 4 5 6 7 8 9 10 11 12 13 14 15 16 17 18 19 20 21 22 23 24 25 26 27 28 29 30 31 32 33 34 35 36 37 38 39 40 41 42 43 44 45 46 47 48 49 50
000
ASUS41 KLWX 270710
RWRLWX

REGIONAL WEATHER ROUNDUP
NATIONAL WEATHER SERVICE BALTIMORE MD/WASHINGTON DC
300 AM EDT WED JUL 27 2016

Note: "FAIR" indicates few or no clouds below 12,000 feet
with no significant weather and/or obstructions to visibility.
 TC=TEMPERATURE CELSIUS

 * =Non NWS site. Station does not report precipitation (e.g. rain,
    snow, etc.), thunder, or fog.

DCZ001-MDZ009-015-VAZ040>042-051-053>054-270800-
WASHINGTON METRO

CITY           SKY/WX    TMP DP  RH WIND       PRES   REMARKS
WASHINGTON NAT CLOUDY    82  72  71 W7        29.94S
DULLES         CLOUDY    78  71  79 CALM      29.94F
ANDREWS AFB    CLOUDY    80  73  78 W5        29.93S
FT BELVOIR     FAIR      79  71  75 NW3       29.93F
QUANTICO       FAIR      78  71  79 N5        29.94S
COLLEGE PARK*  FAIR      81  72  74 SW3       29.93S
LEESBURG*      FAIR      79  77  94 W9        29.96S
MANASSAS*      FAIR      75  75 100 CALM      29.94F
GAITHERSBURG*  CLOUDY    77  70  78 NW5       29.99S

$$

MDZ006>007-011-014-270800-
BALTIMORE METRO

CITY           SKY/WX    TMP DP  RH WIND       PRES   REMARKS
BWI AIRPORT    CLOUDY    80  71  74 W8        29.92S
MD SCIENCE CTR   N/A     83  70  64 MISG      29.91F
MARTIN STATE   CLOUDY    79  75  89 CALM      29.92S
ANNAPOLIS      CLOUDY    83  73  72 W3        29.91S
FORT MEADE*    CLOUDY    73  72  94 CALM      29.95S

$$

MDZ012-015-019>023-270800-
MARYLAND EASTERN SHORE

CITY           SKY/WX    TMP DP  RH WIND       PRES   REMARKS
OCEAN CITY     PTCLDY    76  74  93 CALM      29.93R
SALISBURY      CLOUDY    76  74  93 CALM      29.92R
BAY BRIDGE AP* CLOUDY    82  75  78 W5        29.91S
EASTON*        CLOUDY    83  82  97 CALM      29.95S HX  97

$$

MDZ017>025-270800-
SOUTHERN MARYLAND

CITY           SKY/WX    TMP DP  RH WIND       PRES   REMARKS
PATUXENT RIVER PTCLDY    80  76  87 W6        29.92R
ST INIGOES     MOCLDY    82  77  84 W5        29.92R HX  90
LEONARDTOWN*     N/A    N/A N/A N/A MISG        N/A

$$

MDZ003>005-270800-
NORTH CENTRAL MARYLAND

CITY           SKY/WX    TMP DP  RH WIND       PRES   REMARKS
FREDERICK*     CLOUDY    77  73  88 CALM      29.97S
HAGERSTOWN APT CLOUDY    78  65  63 E3        29.97S

$$

MDZ501>502-270800-
WESTERN MARYLAND

CITY           SKY/WX    TMP DP  RH WIND       PRES   REMARKS
OAKLAND*       CLOUDY    68  66  94 CALM      30.11F
CUMBERLAND*    CLOUDY    75  68  78 N3        30.03F

$$

VAZ025>031-270800-
SHENANDOAH VALLEY

CITY           SKY/WX    TMP DP  RH WIND       PRES   REMARKS
WINCHESTER*    FAIR      77  70  78 W5        29.98S
FRONT ROYAL*   FAIR      73  72  94 CALM      29.97S
LURAY*         FAIR     N/A N/A N/A SW5       30.00F
NEW MARKET*    FAIR     N/A N/A N/A W3        29.99S
STAUNTON*      FAIR      71  71  99 CALM      30.03F FOG
WAYNESBORO*    FAIR      72  70  96 CALM      30.03F

$$

WVZ021-048>050-054>055-270800-
EASTERN WEST VIRGINIA PANHANDLE

CITY           SKY/WX    TMP DP  RH WIND       PRES   REMARKS
MARTINSBURG    FAIR      75  70  84 SW3       29.96S
PETERSBURG*    FAIR      73  72  95 CALM      30.00F

$$

VAZ036>039-050-270800-
CENTRAL FOOTHILLS

CITY           SKY/WX    TMP DP  RH WIND       PRES   REMARKS
CHARLOTTESVILL FAIR      76  73  91 CALM      29.97S
CULPEPER*      CLOUDY    76  74  95 CALM      29.96F
ORANGE*          N/A     75  75 100 CALM      29.97F
GORDONSVILLE*  FAIR      77  73  86 CALM      29.95F
WARRENTON*     MOCLDY    75  70  84 CALM      29.94F

$$

VAZ055>057-270800-
NORTH AND CENTRAL PIEDMONT

CITY           SKY/WX    TMP DP  RH WIND       PRES   REMARKS
FREDERICKSBRG* FAIR      75  75 100 SW3       29.94S
STAFFORD*      FAIR      74  70  87 CALM      29.98F

$$

NCZ024-NYZ072-PAZ021-071-VAZ022-071-270800-
OTHER REGIONAL OBSERVATIONS

CITY           SKY/WX    TMP DP  RH WIND       PRES   REMARKS
NEW YORK CITY  PTCLDY    77  61  57 CALM      29.96S
PHILADELPHIA   CLOUDY    79  67  66 NE6       29.93S
PITTSBURGH     CLOUDY    72  61  68 CALM      30.02F
ROANOKE        FAIR      75  72  90 CALM      30.03F
RICHMOND       CLOUDY    74  72  93 NW6       29.95S
RALEIGH        CLOUDY    78  75  90 CALM      29.98F

$$

ANZ530>537-270800-
MARINE OBSERVATIONS

STATION/POSITION TIME  TEMP    WIND        PRES
                       AIR SEA DIR/SP/G
                 (UTC) (F)     (DEG/KT/KT) (MB)
THOMAS PT LIGHT  0700   83 84  260/  8/  9 1014.4R
BALT KEY BRIDGE  0642   83     280/  7/  8 1012.6F
COVE POINT       0642   82     290/  9/ 12 1013.6R
LEWISETTA        0642   80 88  300/  5/  7 1013.2R
SOLOMONS ISLAND  0642   82 86  270/  5/  7   N/A
PINEY POINT      0648          320/ 12/ 14   N/A

$$




USA.gov is the U.S. government's official web portal to all federal, state and local government web resources and services.